Flag for U.S.A. Weather past 2 weeks in Howell, Michigan, U.S.A.

39 °F

Drizzle. Mostly cloudy.

Feels Like: 34 °F
Forecast: 33 / 54 °F
Wind: 7 mph from North

Location: Livingston County Airport

Current Time: Nov 27, 2015 at 4:00:04 PM

Latest Report: Nov 27, 2015 at 3:35 PM

Visibility: 3 mi

Pressure: 30.29 "Hg

Humidity: 98%

Dew point: 38 °F

Location of HowellLocation

Historic Weather in Howell — Graph


Howell temperature yesterday

Maximum temperature yesterday: 59 °F (at 11:54 PM)
Minimum temperature yesterday: 42 °F (at 4:34 AM)
Average temperature yesterday: 51 °F

Past Weeks' High & Low Weather Summary

High65 °F (Nov 15, 2:34 PM)100% (Nov 21, 10:15 AM)30.41 "Hg (Nov 21, 10:15 AM)
Low20 °F (Nov 22, 8:15 AM)25% (Nov 16, 1:35 PM)29.38 "Hg (Nov 12, 2:14 PM)
Average42 °F70%30.09 "Hg
* Reported Nov 12 2:14 PM — Nov 27 2:35 PM, Howell, Weather by CustomWeather, © 2015

Note: Actual official high and low records may vary slightly from our data, if they occured in-between our weather recording intervals... More about our weather records


Howell weather history for previous 24 hours

Time TempWeatherWind HumidityBarometerVisibility
2:35 PM
Fri, Nov 27
40 °FRain. Low clouds.10 mph97%30.28 "Hg4 mi
2:14 PM41 °FMostly cloudy.7 mph97%30.28 "Hg7 mi
1:54 PM41 °FDrizzle. Mostly cloudy.7 mph97%30.27 "Hg7 mi
1:35 PM41 °FLight rain. Mostly cloudy.6 mph97%30.27 "Hg4 mi
1:14 PM42 °FRain. More clouds than sun.7 mph97%30.27 "Hg5 mi
12:54 PM42 °FFog.8 mph97%30.27 "Hg3 mi
12:35 PM43 °FDrizzle. Mostly cloudy.7 mph97%30.26 "Hg2 mi
12:14 PM43 °FDrizzle. Mostly cloudy.6 mph96%30.26 "Hg4 mi
11:54 AM44 °FDrizzle. Cloudy.8 mph97%30.26 "Hg4 mi
11:35 AM44 °FRain. Mostly cloudy.5 mph97%30.26 "Hg4 mi
10:54 AM46 °FLight rain. Cloudy.9 mph96%30.25 "Hg3 mi
10:35 AM49 °FRain. Mostly cloudy.13 mph93%30.24 "Hg2 mi
10:14 AM55 °FDrizzle. Overcast.10 mph96%30.21 "Hg2 mi
9:55 AM55 °FOvercast.9 mph96%30.20 "Hg7 mi
9:35 AM54 °FFog.9 mph97%30.20 "Hg4 mi
8:55 AM54 °FLight rain. Mostly cloudy.12 mph96%30.20 "Hg5 mi
8:35 AM54 °FLight rain. Overcast.8 mph96%30.19 "Hg7 mi
8:14 AM54 °FLight rain. Cloudy.8 mph96%30.18 "Hg7 mi
7:55 AM54 °FRain. Cloudy.8 mph95%30.18 "Hg7 mi
7:34 AM54 °FRain. Overcast.9 mph95%30.19 "Hg7 mi
7:14 AM54 °FRain. Mostly cloudy.12 mph94%30.19 "Hg7 mi
6:55 AM54 °FHeavy rain. Overcast.9 mph94%30.20 "Hg4 mi
6:34 AM54 °FRain. Overcast.9 mph92%30.18 "Hg7 mi
6:14 AM54 °FRain. Mostly cloudy.12 mph90%30.17 "Hg7 mi
5:55 AM54 °FLight rain. Overcast.12 mph86%30.18 "Hg7 mi
5:34 AM55 °FRain. Mostly cloudy.13 mph82%30.18 "Hg7 mi
5:14 AM56 °FLight rain. Overcast.10 mph75%30.18 "Hg7 mi
4:55 AM58 °FOvercast.13 mph66%30.18 "Hg10 mi
4:34 AM58 °FMostly cloudy.12 mph66%30.17 "Hg10 mi
4:14 AM58 °FOvercast.12 mph65%30.18 "Hg10 mi
3:55 AM58 °FOvercast.13 mph65%30.18 "Hg10 mi
3:34 AM58 °FMostly cloudy.13 mph67%30.19 "Hg10 mi
3:14 AM58 °FMostly cloudy.10 mph67%30.20 "Hg10 mi
2:55 AM58 °FMostly cloudy.9 mph67%30.20 "Hg10 mi
1:34 AM58 °FRain. Overcast.15 mph66%30.22 "Hg10 mi
1:15 AM58 °FMostly cloudy.14 mph63%30.22 "Hg10 mi
12:54 AM58 °FOvercast.13 mph63%30.23 "Hg10 mi
12:34 AM58 °FPassing clouds.14 mph62%30.22 "Hg10 mi
11:54 PM
Thu, Nov 26
59 °FOvercast.14 mph60%30.23 "Hg10 mi
10:54 PM58 °FOvercast.14 mph64%30.24 "Hg10 mi
10:35 PM57 °FMostly cloudy.14 mph65%30.24 "Hg10 mi
10:14 PM57 °FMostly cloudy.12 mph65%30.24 "Hg10 mi
9:54 PM57 °FMostly cloudy.13 mph67%30.25 "Hg10 mi
9:35 PM57 °FMostly cloudy.14 mph67%30.26 "Hg10 mi
9:14 PM57 °FPartly cloudy.14 mph67%30.25 "Hg10 mi
8:55 PM56 °FPassing clouds.16 mph69%30.25 "Hg10 mi
8:35 PM57 °FPassing clouds.15 mph70%30.25 "Hg10 mi
8:14 PM56 °FClear.15 mph72%30.25 "Hg10 mi
7:55 PM56 °FPassing clouds.16 mph72%30.25 "Hg10 mi
7:35 PM56 °FPassing clouds.17 mph73%30.25 "Hg10 mi
6:55 PM56 °FPassing clouds.22 mph74%30.25 "Hg10 mi
6:35 PM56 °FOvercast.17 mph74%30.25 "Hg10 mi
5:55 PM56 °FOvercast.16 mph76%30.25 "Hg10 mi
5:14 PM56 °FPassing clouds.15 mph77%30.26 "Hg10 mi
4:55 PM56 °FScattered clouds.16 mph77%30.25 "Hg10 mi
4:34 PM57 °FPartly sunny.14 mph76%30.25 "Hg10 mi
Weather by CustomWeather, © 2015

See weather overviewHow to use our weather pages